| time (UTC) | temp F | wind direction | speed MPH | gust MPH | rain 1hr in | rain 24hr in | rain mn in | humidity % | barometer mb |
| 20260510022016 | 78 | 153 | 2.0 | 5.0 | 0.00 | 1.71 | 1.71 | 67 | 1010.0 |
| 20260510021036 | 79 | 141 | 1.0 | 3.0 | 0.00 | 1.71 | 1.71 | 66 | 1009.9 |
| 20260510020017 | 79 | 150 | 1.0 | 4.0 | 0.00 | 1.71 | 1.71 | 65 | 1009.8 |
| 20260510015017 | 79 | 144 | 1.0 | 4.0 | 0.00 | 1.71 | 1.71 | 64 | 1009.7 |
| 20260510014017 | 80 | 150 | 2.0 | 4.0 | 0.00 | 1.71 | 1.71 | 63 | 1009.5 |
| 20260510013017 | 81 | 140 | 2.0 | 5.0 | 0.00 | 1.71 | 1.71 | 62 | 1009.4 |
| 20260510012017 | 82 | 137 | 1.0 | 4.0 | 0.00 | 1.71 | 1.71 | 61 | 1009.4 |
| 20260510011017 | 83 | 132 | 1.0 | 4.0 | 0.00 | 1.71 | 1.71 | 59 | 1009.4 |
| 20260510010017 | 84 | 128 | 2.0 | 4.0 | 0.00 | 1.71 | 1.71 | 58 | 1009.3 |
| 20260510005018 | 85 | 131 | 2.0 | 5.0 | 0.00 | 1.71 | 1.71 | 56 | 1009.3 |
| 20260510003018 | 86 | 120 | 1.0 | 3.0 | 0.00 | 1.71 | 1.71 | 53 | 1009.2 |
| 20260510002018 | 87 | 125 | 3.0 | 5.0 | 0.00 | 1.71 | 1.71 | 52 | 1009.2 |
| 20260510001018 | 87 | 131 | 2.0 | 7.0 | 0.00 | 1.71 | 1.71 | 51 | 1009.1 |
| 20260510000019 | 88 | 136 | 2.0 | 7.0 | 0.00 | 1.71 | 1.71 | 51 | 1009.1 |
| 20260509235039 | 88 | 116 | 3.0 | 8.0 | 0.00 | 1.71 | 1.71 | 50 | 1009.1 |
| 20260509234016 | 88 | 127 | 2.0 | 4.0 | 0.00 | 1.71 | 1.71 | 51 | 1009.1 |
| 20260509233036 | 88 | 130 | 3.0 | 7.0 | 0.00 | 1.71 | 1.71 | 50 | 1009.1 |
| 20260509232016 | 89 | 140 | 3.0 | 6.0 | 0.00 | 1.71 | 1.71 | 49 | 1009.0 |
| 20260509231016 | 89 | 125 | 2.0 | 5.0 | 0.00 | 1.71 | 1.71 | 47 | 1009.1 |
| 20260509230016 | 89 | 146 | 2.0 | 6.0 | 0.00 | 1.71 | 1.71 | 47 | 1009.1 |
| 20260509225036 | 90 | 120 | 3.0 | 6.0 | 0.00 | 1.71 | 1.71 | 47 | 1009.1 |
| 20260509224016 | 89 | 179 | 1.0 | 5.0 | 0.00 | 1.71 | 1.71 | 44 | 1009.1 |
| 20260509223137 | 89 | 156 | 2.0 | 6.0 | 0.00 | 1.71 | 1.71 | 45 | 1009.1 |
| 20260509222037 | 89 | 151 | 4.0 | 10.0 | 0.00 | 1.71 | 1.71 | 46 | 1009.1 |
| 20260509221017 | 88 | 135 | 3.0 | 6.0 | 0.00 | 1.71 | 1.71 | 45 | 1009.1 |
| 20260509220017 | 88 | 129 | 3.0 | 7.0 | 0.00 | 1.71 | 1.71 | 47 | 1009.2 |
| 20260509215017 | 88 | 118 | 3.0 | 6.0 | 0.00 | 1.71 | 1.71 | 48 | 1009.3 |
| 20260509214017 | 88 | 120 | 3.0 | 7.0 | 0.00 | 1.71 | 1.71 | 48 | 1009.4 |
| 20260509213018 | 88 | 133 | 3.0 | 9.0 | 0.00 | 1.71 | 1.71 | 49 | 1009.5 |
| 20260509212018 | 88 | 138 | 3.0 | 5.0 | 0.00 | 1.71 | 1.71 | 49 | 1009.6 |
| 20260509211018 | 88 | 147 | 3.0 | 8.0 | 0.00 | 1.71 | 1.71 | 49 | 1009.8 |
| 20260509210018 | 88 | 148 | 3.0 | 8.0 | 0.00 | 1.71 | 1.71 | 50 | 1009.9 |
| 20260509204018 | 88 | 166 | 4.0 | 9.0 | 0.00 | 1.71 | 1.71 | 49 | 1010.3 |
| 20260509203018 | 88 | 125 | 3.0 | 7.0 | 0.00 | 1.71 | 1.71 | 50 | 1010.4 |
| 20260509202018 | 87 | 127 | 3.0 | 8.0 | 0.00 | 1.71 | 1.71 | 48 | 1010.5 |
| 20260509201039 | 87 | 171 | 4.0 | 8.0 | 0.00 | 1.71 | 1.71 | 48 | 1010.6 |
| 20260509200016 | 87 | 183 | 3.0 | 7.0 | 0.00 | 1.71 | 1.71 | 46 | 1010.7 |
| 20260509195039 | 87 | 197 | 4.0 | 6.0 | 0.00 | 1.71 | 1.71 | 46 | 1010.9 |
| 20260509194016 | 87 | 138 | 2.0 | 5.0 | 0.00 | 1.71 | 1.71 | 47 | 1010.9 |
| 20260509193036 | 87 | 105 | 2.0 | 6.0 | 0.00 | 1.71 | 1.71 | 47 | 1011.0 |
| 20260509192017 | 87 | 174 | 3.0 | 8.0 | 0.00 | 1.71 | 1.71 | 49 | 1011.1 |
| 20260509191017 | 87 | 125 | 2.0 | 5.0 | 0.00 | 1.71 | 1.71 | 47 | 1011.1 |
| 20260509190017 | 86 | 242 | 2.0 | 4.0 | 0.00 | 1.71 | 1.71 | 47 | 1011.3 |
| 20260509185017 | 85 | 190 | 2.0 | 6.0 | 0.00 | 1.71 | 1.71 | 48 | 1011.4 |
| 20260509184017 | 84 | 251 | 2.0 | 4.0 | 0.00 | 1.71 | 1.71 | 48 | 1011.4 |
| 20260509183037 | 83 | 273 | 2.0 | 5.0 | 0.00 | 1.71 | 1.71 | 49 | 1011.6 |
| 20260509182017 | 83 | 317 | 2.0 | 3.0 | 0.00 | 1.71 | 1.71 | 47 | 1011.7 |
| 20260509181017 | 82 | 309 | 3.0 | 4.0 | 0.00 | 1.71 | 1.71 | 47 | 1011.8 |
| 20260509180017 | 81 | 358 | 2.0 | 3.0 | 0.00 | 1.71 | 1.71 | 51 | 1011.9 |
| 20260509175037 | 81 | 323 | 2.0 | 4.0 | 0.00 | 1.71 | 1.71 | 51 | 1012.1 |
| 20260509173038 | 81 | 353 | 2.0 | 3.0 | 0.00 | 1.71 | 1.71 | 52 | 1012.3 |
| 20260509172018 | 81 | 354 | 2.0 | 3.0 | 0.00 | 1.71 | 1.71 | 52 | 1012.4 |
| 20260509171018 | 81 | 340 | 2.0 | 3.0 | 0.00 | 1.71 | 1.71 | 50 | 1012.4 |
| 20260509170018 | 81 | 349 | 1.0 | 2.0 | 0.00 | 1.71 | 1.71 | 52 | 1012.4 |
| 20260509165018 | 80 | 338 | 1.0 | 2.0 | 0.00 | 1.71 | 1.71 | 54 | 1012.5 |
| 20260509164016 | 79 | 292 | 1.0 | 3.0 | 0.00 | 1.71 | 1.71 | 60 | 1012.5 |
| 20260509163016 | 78 | 307 | 2.0 | 3.0 | 0.00 | 1.71 | 1.71 | 62 | 1012.7 |
| 20260509162016 | 78 | 313 | 2.0 | 3.0 | 0.00 | 1.71 | 1.71 | 66 | 1012.7 |
| 20260509161056 | 77 | 321 | 1.0 | 2.0 | 0.00 | 1.71 | 1.71 | 69 | 1012.8 |
| 20260509160036 | 77 | 325 | 1.0 | 2.0 | 0.00 | 1.71 | 1.71 | 71 | 1012.7 |
| 20260509155016 | 76 | 320 | 1.0 | 2.0 | 0.00 | 1.71 | 1.71 | 72 | 1012.7 |
| 20260509154016 | 76 | 326 | 1.0 | 2.0 | 0.00 | 1.71 | 1.71 | 73 | 1012.7 |
| 20260509153016 | 75 | 338 | 1.0 | 3.0 | 0.00 | 1.71 | 1.71 | 75 | 1012.7 |
| 20260509152017 | 74 | 298 | 1.0 | 2.0 | 0.00 | 1.71 | 1.71 | 75 | 1012.7 |
| 20260509151017 | 72 | 328 | 2.0 | 3.0 | 0.00 | 1.71 | 1.71 | 78 | 1012.7 |
| 20260509150017 | 72 | 309 | 2.0 | 2.0 | 0.00 | 1.71 | 1.71 | 79 | 1012.7 |
| 20260509145017 | 71 | 297 | 2.0 | 2.0 | 0.00 | 1.71 | 1.71 | 79 | 1012.7 |
| 20260509144017 | 69 | 296 | 2.0 | 3.0 | 0.00 | 1.71 | 1.71 | 81 | 1012.8 |
| 20260509143017 | 69 | 306 | 3.0 | 4.0 | 0.00 | 1.71 | 1.71 | 81 | 1012.8 |
| 20260509142018 | 68 | 293 | 2.0 | 3.0 | 0.00 | 1.71 | 1.71 | 82 | 1012.8 |
| 20260509141018 | 68 | 263 | 4.0 | 5.0 | 0.00 | 1.71 | 1.71 | 83 | 1012.9 |
| 20260509140018 | 67 | 263 | 5.0 | 6.0 | 0.00 | 1.71 | 1.71 | 83 | 1012.8 |
| 20260509135018 | 66 | 270 | 3.0 | 4.0 | 0.00 | 1.71 | 1.71 | 84 | 1012.7 |
| 20260509134018 | 66 | 254 | 1.0 | 4.0 | 0.00 | 1.71 | 1.71 | 85 | 1012.7 |
| 20260509133039 | 65 | 300 | 2.0 | 4.0 | 0.00 | 1.71 | 1.71 | 87 | 1012.7 |
| 20260509132018 | 64 | 278 | 4.0 | 5.0 | 0.00 | 1.71 | 1.71 | 88 | 1012.4 |
| 20260509131038 | 64 | 266 | 3.0 | 4.0 | 0.00 | 1.71 | 1.71 | 88 | 1012.3 |
| 20260509130019 | 64 | 255 | 3.0 | 4.0 | 0.00 | 1.71 | 1.71 | 89 | 1012.4 |
| 20260509125016 | 63 | 267 | 3.0 | 4.0 | 0.00 | 1.71 | 1.71 | 91 | 1012.2 |
| 20260509124016 | 63 | 249 | 3.0 | 4.0 | 0.00 | 1.71 | 1.71 | 91 | 1012.1 |
| 20260509123016 | 63 | 182 | 1.0 | 3.0 | 0.00 | 1.71 | 1.71 | 91 | 1012.0 |
| 20260509122016 | 64 | 218 | 2.0 | 4.0 | 0.00 | 1.71 | 1.71 | 91 | 1011.8 |
| 20260509121017 | 64 | 266 | 7.0 | 10.0 | 0.00 | 1.71 | 1.71 | 91 | 1011.4 |
| 20260509120016 | 64 | 275 | 9.0 | 12.0 | 0.00 | 1.71 | 1.71 | 91 | 1011.3 |
| 20260509115019 | 63 | 265 | 8.0 | 10.0 | 0.00 | 1.71 | 1.71 | 91 | 1011.4 |
| 20260509114016 | 63 | 268 | 8.0 | 10.0 | 0.00 | 1.71 | 1.71 | 91 | 1011.4 |
| 20260509113017 | 64 | 265 | 8.0 | 11.0 | 0.00 | 1.71 | 1.71 | 91 | 1011.3 |
| 20260509112017 | 64 | 259 | 7.0 | 11.0 | 0.00 | 1.71 | 1.71 | 91 | 1011.3 |
| 20260509111017 | 64 | 272 | 10.0 | 14.0 | 0.00 | 1.71 | 1.71 | 91 | 1010.9 |
| 20260509110017 | 64 | 265 | 11.0 | 15.0 | 0.01 | 1.71 | 1.71 | 89 | 1010.7 |
| 20260509105017 | 65 | 273 | 11.0 | 16.0 | 0.01 | 1.71 | 1.71 | 88 | 1010.7 |
| 20260509104017 | 64 | 253 | 10.0 | 14.0 | 0.02 | 1.71 | 1.71 | 87 | 1010.6 |
| 20260509103016 | 65 | 250 | 9.0 | 15.0 | 0.03 | 1.71 | 1.71 | 85 | 1010.6 |
| 20260509102016 | 64 | 258 | 12.0 | 17.0 | 0.03 | 1.71 | 1.71 | 89 | 1010.3 |
| 20260509101036 | 64 | 300 | 14.0 | 18.0 | 0.03 | 1.71 | 1.71 | 89 | 1010.1 |
| 20260509100017 | 63 | 336 | 8.0 | 18.0 | 0.03 | 1.70 | 1.70 | 89 | 1010.3 |
| 20260509095017 | 62 | 266 | 13.0 | 19.0 | 0.04 | 1.70 | 1.70 | 90 | 1010.1 |
| 20260509094036 | 62 | 131 | 8.0 | 17.0 | 0.12 | 1.70 | 1.70 | 95 | 1009.3 |
| 20260509093016 | 62 | 110 | 8.0 | 16.0 | 0.72 | 1.68 | 1.68 | 95 | 1010.4 |
| 20260509092016 | 63 | 111 | 6.0 | 12.0 | 1.62 | 1.68 | 1.68 | 94 | 1010.9 |
| 20260509091016 | 64 | 110 | 8.0 | 14.0 | 1.68 | 1.68 | 1.68 | 96 | 1011.4 |
| 20260509090017 | 64 | 119 | 5.0 | 8.0 | 1.68 | 1.68 | 1.68 | 99 | 1012.6 |
| 20260509085016 | 64 | 140 | 5.0 | 10.0 | 1.66 | 1.66 | 1.66 | 99 | 1012.9 |
| 20260509084037 | 65 | 94 | 7.0 | 13.0 | 1.58 | 1.58 | 1.58 | 98 | 1013.6 |
| 20260509083057 | 67 | 58 | 9.0 | 26.0 | 0.96 | 0.96 | 0.96 | 98 | 1014.0 |
| 20260509082017 | 68 | 42 | 9.0 | 16.0 | 0.06 | 0.06 | 0.06 | 97 | 1014.0 |
| 20260509081017 | 67 | 13 | 9.0 | 13.0 | 0.00 | 0.00 | 0.00 | 99 | 1013.5 |
| 20260509080017 | 67 | 350 | 5.0 | 7.0 | 0.00 | 0.00 | 0.00 | 99 | 1013.0 |
| 20260509075037 | 66 | 314 | 1.0 | 2.0 | 0.00 | 0.00 | 0.00 | 99 | 1013.0 |
| 20260509074018 | 66 | 255 | 0.0 | 2.0 | 0.00 | 0.00 | 0.00 | 99 | 1012.9 |
| 20260509073038 | 66 | 139 | 1.0 | 4.0 | 0.00 | 0.00 | 0.00 | 99 | 1013.0 |
| 20260509072018 | 66 | 37 | 5.0 | 11.0 | 0.00 | 0.00 | 0.00 | 99 | 1013.1 |
| 20260509071018 | 65 | 66 | 2.0 | 8.0 | 0.00 | 0.00 | 0.00 | 99 | 1012.0 |
| 20260509070018 | 66 | 135 | 3.0 | 6.0 | 0.00 | 0.00 | 0.00 | 99 | 1011.6 |
| 20260509065018 | 66 | 140 | 4.0 | 8.0 | 0.00 | 0.00 | 0.00 | 99 | 1011.4 |
| 20260509064018 | 66 | 145 | 4.0 | 9.0 | 0.00 | 0.00 | 0.00 | 99 | 1011.3 |
| 20260509063038 | 66 | 147 | 4.0 | 8.0 | 0.00 | 0.00 | 0.00 | 99 | 1011.1 |
| 20260509062016 | 66 | 151 | 4.0 | 10.0 | 0.00 | 0.00 | 0.00 | 99 | 1011.0 |
| 20260509061036 | 66 | 143 | 3.0 | 7.0 | 0.00 | 0.00 | 0.00 | 100 | 1010.9 |
| 20260509060116 | 66 | 148 | 3.0 | 7.0 | 0.00 | 0.00 | 0.00 | 99 | 1010.7 |
| 20260509055016 | 66 | 126 | 3.0 | 6.0 | 0.00 | 0.00 | 0.00 | 99 | 1010.7 |
| 20260509054016 | 66 | 133 | 3.0 | 7.0 | 0.00 | 0.00 | 0.00 | 99 | 1010.7 |
| 20260509053017 | 66 | 140 | 3.0 | 6.0 | 0.00 | 0.00 | 0.00 | 98 | 1010.7 |
| 20260509052017 | 67 | 122 | 3.0 | 6.0 | 0.00 | 0.00 | 0.00 | 97 | 1010.8 |
| 20260509051016 | 67 | 139 | 4.0 | 7.0 | 0.00 | 0.00 | 0.00 | 97 | 1010.8 |
| 20260509050017 | 67 | 136 | 3.0 | 6.0 | 0.00 | 0.00 | 0.00 | 96 | 1011.1 |
| 20260509045017 | 67 | 141 | 3.0 | 6.0 | 0.00 | 0.00 | 0.00 | 96 | 1011.4 |
| 20260509044017 | 67 | 133 | 2.0 | 6.0 | 0.00 | 0.00 | 0.00 | 96 | 1011.3 |
| 20260509043017 | 67 | 148 | 3.0 | 6.0 | 0.00 | 0.00 | 0.00 | 96 | 1011.0 |
| 20260509042018 | 68 | 119 | 3.0 | 5.0 | 0.00 | 0.00 | 0.00 | 95 | 1010.9 |
| 20260509041018 | 68 | 128 | 2.0 | 5.0 | 0.00 | 0.00 | 0.00 | 95 | 1011.0 |
| 20260509040037 | 68 | 116 | 2.0 | 4.0 | 0.00 | 0.00 | 0.00 | 94 | 1011.0 |
| 20260509035018 | 68 | 134 | 1.0 | 5.0 | 0.00 | 0.00 | 0.00 | 94 | 1011.0 |
| 20260509034017 | 69 | 109 | 1.0 | 2.0 | 0.00 | 0.00 | 0.00 | 93 | 1011.1 |
| 20260509033039 | 69 | 125 | 1.0 | 3.0 | 0.00 | 0.00 | 0.00 | 92 | 1011.1 |
| 20260509032018 | 70 | 103 | 2.0 | 5.0 | 0.00 | 0.00 | 0.00 | 91 | 1011.0 |
| 20260509031038 | 70 | 127 | 2.0 | 4.0 | 0.00 | 0.00 | 0.00 | 90 | 1011.0 |
| 20260509030018 | 71 | 130 | 2.0 | 6.0 | 0.00 | 0.00 | 0.00 | 89 | 1010.8 |
| 20260509025018 | 71 | 124 | 2.0 | 7.0 | 0.00 | 0.00 | 0.00 | 89 | 1010.6 |
| 20260509024019 | 71 | 139 | 2.0 | 6.0 | 0.00 | 0.00 | 0.00 | 88 | 1010.4 |
| 20260509023016 | 71 | 138 | 2.0 | 4.0 | 0.00 | 0.00 | 0.00 | 87 | 1010.3 |